Precipitable_Water
0.23 0.20 0.20 0.18 0.20 0.25 0.25 0.26 0.22 0.20 0.17 0.17 0.17 0.16 0.14 0.11 0.12 0.15 0.16 0.16 0.22 0.19 0.16 0.14 0.14 0.15 0.16 0.15 0.14 0.16 0.18 0.19 0.20 0.19 0.20 0.20 0.21 0.23 0.28 0.31 0.32 0.42 0.64 0.86 0.85 0.86 0.82 0.82 0.95 1.01 1.11 1.15 1.23 1.27 1.27 1.24 1.18 1.27 1.24 1.21 1.18 1.22 1.20 1.16 1.13 1.14 1.18 1.17 1.21 1.27 1.26 1.21 1.24 1.25 1.26 1.24 1.27 1.30 1.34 1.39 1.42 1.43 1.41 1.38 1.37 1.34
0.20 0.21 0.20 0.19 0.21 0.26 0.28 0.28 0.28 0.23 0.19 0.18 0.16 0.16 0.16 0.14 0.11 0.14 0.16 0.15 0.21 0.20 0.16 0.16 0.14 0.13 0.15 0.16 0.16 0.15 0.16 0.18 0.20 0.21 0.20 0.20 0.21 0.23 0.27 0.33 0.34 0.51 0.65 0.95 0.93 0.89 0.88 0.88 0.94 1.02 1.08 1.15 1.14 1.19 1.20 1.16 1.18 1.26 1.25 1.20 1.16 1.16 1.14 1.14 1.13 1.16 1.20 1.23 1.22 1.24 1.25 1.26 1.24 1.23 1.22 1.20 1.23 1.23 1.31 1.40 1.41 1.38 1.39 1.42 1.41 1.36
0.16 0.18 0.20 0.21 0.24 0.27 0.30 0.30 0.30 0.25 0.20 0.18 0.17 0.18 0.17 0.15 0.13 0.14 0.15 0.16 0.20 0.19 0.15 0.16 0.14 0.13 0.14 0.15 0.17 0.16 0.15 0.16 0.20 0.21 0.22 0.22 0.23 0.26 0.32 0.38 0.46 0.56 0.64 0.92 0.95 0.90 0.83 0.88 0.91 0.98 1.08 1.15 1.18 1.16 1.13 1.16 1.21 1.25 1.20 1.15 1.12 1.13 1.16 1.20 1.23 1.24 1.22 1.25 1.26 1.25 1.23 1.19 1.18 1.24 1.25 1.24 1.23 1.24 1.28 1.36 1.38 1.40 1.43 1.43 1.43 1.41
0.16 0.15 0.21 0.25 0.27 0.27 0.28 0.30 0.29 0.26 0.22 0.20 0.20 0.19 0.17 0.18 0.15 0.11 0.17 0.19 0.18 0.18 0.14 0.14 0.14 0.15 0.15 0.16 0.16 0.18 0.17 0.16 0.17 0.21 0.22 0.22 0.24 0.29 0.36 0.41 0.48 0.54 0.59 0.86 0.88 0.79 0.78 0.85 0.90 0.95 1.01 1.09 1.14 1.11 1.08 1.16 1.18 1.19 1.12 1.10 1.12 1.20 1.26 1.25 1.28 1.27 1.26 1.25 1.30 1.25 1.19 1.16 1.16 1.16 1.22 1.20 1.21 1.24 1.30 1.33 1.39 1.45 1.49 1.47 1.45 1.43
0.18 0.17 0.21 0.27 0.28 0.27 0.25 0.27 0.27 0.25 0.21 0.22 0.21 0.19 0.18 0.19 0.16 0.14 0.17 0.17 0.16 0.17 0.16 0.14 0.13 0.14 0.15 0.15 0.15 0.17 0.18 0.18 0.17 0.18 0.22 0.24 0.25 0.29 0.36 0.40 0.47 0.51 0.57 0.82 0.83 0.79 0.76 0.79 0.84 0.89 0.97 1.06 1.06 1.04 1.07 1.16 1.14 1.08 1.06 1.13 1.24 1.25 1.25 1.26 1.28 1.30 1.30 1.29 1.31 1.28 1.23 1.19 1.15 1.16 1.15 1.16 1.15 1.20 1.27 1.36 1.43 1.49 1.58 1.57 1.55 1.54
0.19 0.22 0.25 0.27 0.27 0.27 0.26 0.26 0.26 0.25 0.21 0.21 0.24 0.20 0.19 0.21 0.18 0.18 0.16 0.16 0.15 0.14 0.15 0.13 0.11 0.11 0.14 0.16 0.16 0.17 0.17 0.17 0.18 0.17 0.19 0.23 0.26 0.29 0.33 0.38 0.46 0.52 0.55 0.79 0.83 0.77 0.75 0.74 0.81 0.89 0.95 0.99 1.01 1.05 1.12 1.17 1.11 1.07 1.14 1.27 1.25 1.21 1.22 1.25 1.29 1.34 1.33 1.31 1.30 1.27 1.19 1.07 1.05 0.97 0.98 1.02 1.05 1.13 1.22 1.32 1.56 1.64 1.68 1.68 1.70 1.68
0.19 0.26 0.27 0.24 0.27 0.27 0.27 0.26 0.26 0.26 0.22 0.21 0.21 0.21 0.23 0.23 0.19 0.17 0.15 0.16 0.14 0.12 0.14 0.15 0.10 0.09 0.14 0.14 0.16 0.17 0.17 0.17 0.18 0.18 0.18 0.21 0.24 0.28 0.32 0.37 0.43 0.49 0.51 0.76 0.91 0.89 0.77 0.74 0.75 0.79 0.85 0.90 0.93 1.04 1.13 1.13 1.10 1.14 1.25 1.23 1.22 1.24 1.29 1.32 1.32 1.36 1.38 1.37 1.35 1.31 1.21 1.13 1.03 0.95 0.96 1.05 1.13 1.20 1.33 1.51 1.56 1.64 1.68 1.70 1.69 1.71
0.18 0.24 0.28 0.28 0.27 0.28 0.27 0.25 0.26 0.26 0.23 0.21 0.25 0.23 0.22 0.20 0.18 0.17 0.16 0.16 0.16 0.16 0.16 0.15 0.12 0.09 0.11 0.14 0.16 0.17 0.17 0.17 0.17 0.18 0.18 0.20 0.22 0.23 0.27 0.33 0.39 0.45 0.50 0.59 0.75 0.96 0.81 0.72 0.68 0.69 0.79 0.86 0.91 1.00 1.04 1.02 1.06 1.13 1.17 1.19 1.23 1.27 1.26 1.28 1.30 1.32 1.35 1.34 1.35 1.32 1.22 1.15 1.06 1.01 0.97 1.03 1.18 1.34 1.44 1.54 1.62 1.64 1.67 1.72 1.67 1.56
0.18 0.21 0.27 0.27 0.27 0.27 0.26 0.27 0.29 0.28 0.24 0.22 0.27 0.24 0.21 0.20 0.19 0.18 0.16 0.16 0.16 0.15 0.13 0.14 0.14 0.10 0.09 0.14 0.19 0.19 0.17 0.17 0.17 0.18 0.18 0.19 0.21 0.22 0.24 0.30 0.39 0.46 0.51 0.56 0.67 0.84 0.95 0.76 0.72 0.71 0.75 0.87 0.93 0.99 0.98 0.97 1.01 1.11 1.17 1.20 1.22 1.22 1.23 1.24 1.28 1.29 1.32 1.33 1.33 1.31 1.27 1.19 1.13 1.10 1.08 1.18 1.35 1.48 1.59 1.55 1.60 1.60 1.64 1.63 1.65 1.60
0.19 0.23 0.28 0.31 0.27 0.26 0.29 0.29 0.29 0.27 0.23 0.26 0.27 0.24 0.22 0.20 0.19 0.18 0.16 0.16 0.16 0.14 0.12 0.13 0.14 0.10 0.09 0.11 0.16 0.19 0.18 0.16 0.16 0.18 0.19 0.20 0.21 0.21 0.24 0.28 0.35 0.43 0.49 0.56 0.68 0.75 0.94 0.94 0.78 0.77 0.80 0.87 0.91 0.97 0.99 0.99 1.01 1.08 1.17 1.18 1.18 1.19 1.22 1.23 1.24 1.26 1.28 1.29 1.30 1.31 1.28 1.22 1.17 1.16 1.22 1.35 1.44 1.54 1.63 1.58 1.55 1.56 1.60 1.61 1.61 1.55
0.20 0.25 0.31 0.33 0.30 0.31 0.32 0.31 0.31 0.30 0.29 0.29 0.25 0.23 0.20 0.19 0.19 0.20 0.18 0.16 0.14 0.11 0.11 0.14 0.15 0.13 0.10 0.11 0.12 0.18 0.18 0.17 0.18 0.20 0.21 0.23 0.25 0.25 0.26 0.29 0.32 0.34 0.42 0.57 0.63 0.83 0.90 1.04 0.90 0.83 0.79 0.83 0.92 0.96 0.95 0.93 0.96 1.05 1.13 1.15 1.14 1.21 1.25 1.26 1.26 1.25 1.26 1.28 1.28 1.29 1.33 1.33 1.26 1.26 1.32 1.39 1.43 1.51 1.59 1.56 1.54 1.50 1.49 1.53 1.55 1.56
0.21 0.20 0.27 0.34 0.38 0.37 0.35 0.31 0.33 0.33 0.29 0.25 0.22 0.23 0.20 0.18 0.19 0.18 0.16 0.16 0.11 0.10 0.12 0.13 0.14 0.16 0.10 0.12 0.14 0.21 0.29 0.22 0.19 0.19 0.22 0.24 0.24 0.23 0.26 0.30 0.32 0.36 0.47 0.59 0.58 0.74 0.85 1.06 0.98 0.86 0.78 0.79 0.86 0.88 0.88 0.89 0.96 1.03 1.09 1.09 1.09 1.18 1.23 1.24 1.24 1.24 1.28 1.29 1.30 1.30 1.33 1.33 1.35 1.34 1.35 1.36 1.38 1.47 1.49 1.51 1.51 1.48 1.43 1.44 1.54 1.61
0.22 0.20 0.27 0.34 0.37 0.36 0.32 0.29 0.29 0.30 0.27 0.24 0.23 0.23 0.18 0.16 0.15 0.13 0.15 0.12 0.11 0.10 0.13 0.13 0.14 0.16 0.14 0.14 0.17 0.18 0.26 0.26 0.20 0.22 0.24 0.26 0.24 0.22 0.24 0.29 0.34 0.42 0.57 0.60 0.56 0.58 0.75 1.00 0.95 0.78 0.73 0.76 0.79 0.77 0.82 0.87 0.92 1.02 1.07 1.07 1.07 1.10 1.18 1.21 1.23 1.24 1.27 1.29 1.32 1.33 1.28 1.29 1.35 1.39 1.37 1.41 1.43 1.45 1.40 1.44 1.45 1.39 1.35 1.43 1.48 1.56
0.22 0.24 0.25 0.30 0.31 0.36 0.33 0.26 0.25 0.23 0.25 0.23 0.21 0.21 0.18 0.14 0.12 0.11 0.12 0.11 0.11 0.13 0.16 0.15 0.15 0.13 0.16 0.16 0.18 0.19 0.21 0.29 0.28 0.25 0.27 0.31 0.28 0.23 0.24 0.28 0.37 0.48 0.56 0.58 0.65 0.76 0.98 0.97 0.89 0.74 0.70 0.71 0.74 0.77 0.81 0.86 0.89 1.00 1.07 1.09 1.07 1.07 1.14 1.20 1.24 1.26 1.28 1.32 1.36 1.38 1.31 1.31 1.36 1.45 1.49 1.49 1.50 1.50 1.48 1.45 1.42 1.40 1.38 1.45 1.49 1.51
0.18 0.18 0.21 0.26 0.24 0.33 0.33 0.30 0.28 0.25 0.22 0.22 0.23 0.21 0.18 0.15 0.13 0.10 0.11 0.10 0.10 0.11 0.14 0.18 0.15 0.11 0.11 0.14 0.18 0.21 0.26 0.31 0.31 0.25 0.29 0.35 0.31 0.26 0.26 0.30 0.39 0.46 0.50 0.58 0.63 0.73 0.96 0.91 0.85 0.72 0.68 0.68 0.70 0.75 0.81 0.86 0.91 0.98 1.07 1.06 1.05 1.06 1.14 1.20 1.22 1.26 1.28 1.34 1.40 1.42 1.39 1.36 1.44 1.50 1.55 1.55 1.54 1.53 1.49 1.49 1.43 1.41 1.47 1.52 1.53 1.55
0.19 0.18 0.23 0.27 0.28 0.33 0.31 0.33 0.32 0.27 0.23 0.23 0.24 0.23 0.20 0.18 0.19 0.14 0.14 0.14 0.14 0.14 0.13 0.14 0.14 0.16 0.12 0.21 0.23 0.22 0.27 0.32 0.31 0.26 0.28 0.32 0.32 0.30 0.29 0.33 0.39 0.42 0.46 0.58 0.64 0.75 0.90 0.94 0.85 0.75 0.69 0.68 0.70 0.76 0.81 0.85 0.90 0.94 1.04 1.04 1.05 1.07 1.15 1.21 1.25 1.27 1.30 1.36 1.41 1.44 1.40 1.42 1.47 1.51 1.55 1.54 1.52 1.53 1.57 1.52 1.46 1.46 1.51 1.53 1.54 1.57
0.19 0.19 0.26 0.24 0.29 0.31 0.31 0.34 0.32 0.29 0.18 0.22 0.23 0.19 0.20 0.23 0.21 0.17 0.20 0.23 0.19 0.15 0.13 0.15 0.14 0.18 0.19 0.21 0.25 0.21 0.24 0.28 0.30 0.27 0.26 0.29 0.31 0.31 0.31 0.32 0.34 0.36 0.48 0.62 0.66 0.71 0.90 0.93 0.86 0.71 0.68 0.69 0.70 0.74 0.77 0.81 0.88 0.94 1.03 1.01 1.03 1.08 1.18 1.23 1.28 1.28 1.33 1.37 1.38 1.42 1.43 1.43 1.48 1.49 1.46 1.46 1.47 1.50 1.55 1.57 1.54 1.49 1.50 1.54 1.56 1.55
0.17 0.18 0.27 0.23 0.23 0.32 0.34 0.34 0.34 0.32 0.29 0.24 0.19 0.20 0.22 0.24 0.24 0.19 0.15 0.16 0.16 0.12 0.13 0.16 0.13 0.13 0.14 0.15 0.23 0.21 0.19 0.22 0.24 0.24 0.25 0.29 0.32 0.32 0.33 0.35 0.37 0.42 0.53 0.66 0.71 0.76 0.85 0.93 0.77 0.69 0.69 0.69 0.68 0.73 0.79 0.83 0.90 0.96 1.05 1.00 1.01 1.07 1.15 1.26 1.30 1.32 1.36 1.36 1.39 1.41 1.40 1.40 1.44 1.49 1.50 1.50 1.50 1.54 1.51 1.55 1.57 1.55 1.54 1.53 1.52 1.51
0.23 0.19 0.22 0.24 0.24 0.28 0.34 0.35 0.31 0.32 0.31 0.27 0.22 0.24 0.19 0.18 0.17 0.20 0.18 0.14 0.12 0.12 0.13 0.17 0.16 0.13 0.15 0.17 0.22 0.20 0.18 0.19 0.21 0.22 0.26 0.32 0.30 0.32 0.34 0.35 0.37 0.43 0.59 0.72 0.74 0.72 0.86 0.85 0.71 0.67 0.67 0.71 0.72 0.75 0.81 0.85 0.90 0.97 1.03 1.03 1.06 1.12 1.24 1.29 1.34 1.38 1.39 1.39 1.42 1.42 1.39 1.39 1.42 1.47 1.47 1.49 1.53 1.52 1.49 1.50 1.50 1.49 1.52 1.53 1.50 1.50
0.25 0.22 0.21 0.24 0.24 0.27 0.30 0.31 0.24 0.27 0.30 0.29 0.27 0.22 0.22 0.21 0.19 0.17 0.17 0.19 0.15 0.13 0.14 0.15 0.16 0.13 0.15 0.16 0.22 0.21 0.20 0.20 0.20 0.21 0.25 0.32 0.33 0.33 0.33 0.34 0.40 0.55 0.58 0.67 0.79 0.75 0.76 0.74 0.69 0.66 0.66 0.67 0.69 0.72 0.81 0.85 0.90 0.98 1.01 1.03 1.10 1.22 1.30 1.31 1.37 1.37 1.33 1.36 1.36 1.36 1.37 1.39 1.42 1.45 1.43 1.46 1.50 1.46 1.50 1.51 1.49 1.51 1.52 1.49 1.51 1.47
0.27 0.29 0.18 0.22 0.25 0.26 0.23 0.28 0.27 0.26 0.24 0.25 0.23 0.20 0.19 0.19 0.22 0.22 0.22 0.20 0.16 0.15 0.13 0.14 0.14 0.16 0.18 0.18 0.28 0.26 0.24 0.22 0.21 0.22 0.25 0.27 0.29 0.34 0.42 0.54 0.53 0.46 0.54 0.72 0.71 0.69 0.69 0.72 0.72 0.70 0.70 0.71 0.73 0.77 0.81 0.86 0.92 0.99 1.02 1.06 1.16 1.23 1.28 1.32 1.35 1.30 1.28 1.32 1.32 1.32 1.31 1.33 1.40 1.42 1.45 1.47 1.43 1.44 1.50 1.48 1.48 1.53 1.50 1.50 1.47 1.47
0.27 0.28 0.22 0.20 0.21 0.22 0.22 0.28 0.31 0.29 0.28 0.25 0.21 0.20 0.19 0.18 0.19 0.17 0.17 0.21 0.19 0.15 0.13 0.11 0.12 0.17 0.20 0.19 0.21 0.29 0.29 0.26 0.23 0.23 0.23 0.23 0.24 0.27 0.31 0.36 0.45 0.54 0.62 0.68 0.61 0.63 0.69 0.73 0.72 0.72 0.73 0.74 0.72 0.75 0.79 0.88 0.97 0.99 1.02 1.10 1.21 1.27 1.28 1.30 1.26 1.21 1.22 1.31 1.30 1.28 1.30 1.36 1.43 1.45 1.43 1.43 1.42 1.45 1.48 1.43 1.47 1.52 1.52 1.47 1.46 1.45
0.31 0.30 0.26 0.18 0.19 0.21 0.25 0.29 0.33 0.34 0.30 0.28 0.25 0.22 0.20 0.21 0.22 0.19 0.16 0.17 0.18 0.16 0.15 0.13 0.11 0.17 0.26 0.22 0.20 0.26 0.30 0.29 0.26 0.23 0.23 0.23 0.25 0.27 0.31 0.36 0.50 0.61 0.60 0.57 0.59 0.66 0.70 0.71 0.71 0.70 0.70 0.70 0.73 0.78 0.85 0.92 0.95 0.99 1.05 1.14 1.21 1.25 1.25 1.22 1.15 1.20 1.26 1.29 1.30 1.32 1.35 1.39 1.38 1.41 1.38 1.37 1.40 1.42 1.42 1.42 1.49 1.52 1.49 1.48 1.46 1.47
0.33 0.28 0.25 0.21 0.21 0.24 0.28 0.30 0.33 0.33 0.31 0.28 0.26 0.26 0.23 0.21 0.22 0.20 0.18 0.19 0.16 0.18 0.16 0.15 0.12 0.18 0.32 0.37 0.27 0.23 0.23 0.26 0.33 0.29 0.28 0.27 0.28 0.32 0.36 0.43 0.60 0.65 0.58 0.57 0.64 0.68 0.69 0.70 0.72 0.70 0.69 0.71 0.76 0.81 0.88 0.93 0.97 1.02 1.10 1.17 1.22 1.22 1.22 1.26 1.23 1.23 1.25 1.28 1.30 1.35 1.38 1.38 1.39 1.37 1.35 1.33 1.38 1.36 1.36 1.42 1.46 1.50 1.44 1.45 1.46 1.44
0.27 0.30 0.26 0.20 0.20 0.20 0.25 0.27 0.28 0.32 0.30 0.27 0.26 0.26 0.24 0.23 0.23 0.23 0.22 0.24 0.16 0.18 0.19 0.18 0.13 0.23 0.33 0.34 0.42 0.38 0.35 0.31 0.35 0.35 0.36 0.35 0.40 0.42 0.44 0.58 0.65 0.70 0.65 0.62 0.64 0.65 0.67 0.67 0.67 0.67 0.69 0.74 0.82 0.88 0.93 0.95 0.99 1.04 1.12 1.18 1.21 1.23 1.29 1.27 1.26 1.23 1.25 1.26 1.25 1.29 1.31 1.32 1.33 1.35 1.35 1.33 1.33 1.33 1.38 1.41 1.44 1.49 1.46 1.45 1.43 1.40
0.32 0.30 0.27 0.18 0.17 0.15 0.17 0.18 0.18 0.22 0.25 0.26 0.27 0.26 0.25 0.21 0.22 0.22 0.19 0.21 0.17 0.18 0.18 0.16 0.16 0.29 0.41 0.38 0.29 0.29 0.39 0.45 0.47 0.47 0.44 0.50 0.58 0.61 0.62 0.65 0.68 0.71 0.68 0.62 0.62 0.64 0.62 0.65 0.68 0.69 0.75 0.81 0.88 0.93 0.94 0.98 1.03 1.08 1.16 1.20 1.25 1.27 1.26 1.27 1.26 1.26 1.26 1.27 1.26 1.29 1.31 1.33 1.32 1.33 1.32 1.34 1.36 1.39 1.39 1.38 1.41 1.41 1.44 1.43 1.40 1.37
0.34 0.34 0.29 0.25 0.21 0.18 0.19 0.21 0.23 0.24 0.24 0.22 0.24 0.24 0.23 0.22 0.22 0.23 0.23 0.21 0.18 0.18 0.16 0.20 0.26 0.30 0.33 0.40 0.37 0.31 0.29 0.34 0.44 0.46 0.53 0.62 0.63 0.66 0.65 0.66 0.67 0.66 0.63 0.60 0.61 0.63 0.67 0.67 0.67 0.73 0.82 0.86 0.90 0.95 0.97 1.02 1.06 1.13 1.17 1.20 1.26 1.29 1.28 1.27 1.27 1.28 1.27 1.27 1.29 1.32 1.34 1.32 1.33 1.34 1.32 1.34 1.32 1.34 1.38 1.39 1.40 1.38 1.37 1.40 1.37 1.32
0.34 0.31 0.29 0.29 0.25 0.23 0.23 0.23 0.25 0.25 0.23 0.24 0.24 0.24 0.25 0.22 0.22 0.22 0.20 0.20 0.24 0.20 0.14 0.27 0.29 0.31 0.32 0.41 0.45 0.41 0.41 0.41 0.47 0.46 0.51 0.62 0.65 0.62 0.66 0.67 0.66 0.64 0.65 0.66 0.65 0.64 0.64 0.66 0.72 0.79 0.84 0.88 0.93 0.98 1.03 1.08 1.13 1.15 1.17 1.19 1.25 1.28 1.28 1.30 1.30 1.29 1.27 1.27 1.30 1.31 1.31 1.31 1.33 1.31 1.34 1.36 1.35 1.35 1.38 1.40 1.41 1.40 1.41 1.39 1.33 1.29
0.36 0.30 0.31 0.31 0.27 0.26 0.24 0.24 0.25 0.25 0.26 0.26 0.26 0.25 0.25 0.24 0.22 0.22 0.22 0.25 0.26 0.20 0.21 0.29 0.34 0.32 0.34 0.45 0.47 0.44 0.47 0.55 0.55 0.52 0.58 0.64 0.62 0.64 0.64 0.64 0.61 0.61 0.64 0.64 0.65 0.66 0.66 0.69 0.75 0.82 0.88 0.91 0.95 0.99 1.04 1.08 1.15 1.20 1.21 1.25 1.26 1.27 1.29 1.33 1.30 1.28 1.28 1.28 1.26 1.27 1.28 1.29 1.28 1.31 1.36 1.35 1.36 1.35 1.37 1.38 1.39 1.39 1.38 1.34 1.30 1.28
0.36 0.31 0.33 0.32 0.28 0.26 0.25 0.24 0.24 0.23 0.25 0.26 0.26 0.26 0.27 0.25 0.22 0.23 0.24 0.24 0.25 0.28 0.32 0.32 0.32 0.36 0.39 0.49 0.49 0.48 0.58 0.66 0.70 0.67 0.68 0.66 0.58 0.61 0.61 0.59 0.62 0.61 0.62 0.62 0.62 0.67 0.74 0.77 0.82 0.87 0.91 0.93 0.96 1.02 1.05 1.10 1.14 1.17 1.19 1.22 1.25 1.27 1.31 1.32 1.29 1.28 1.28 1.25 1.27 1.28 1.27 1.25 1.24 1.29 1.33 1.33 1.34 1.36 1.38 1.38 1.37 1.36 1.33 1.30 1.27 1.24
0.42 0.31 0.34 0.33 0.28 0.27 0.25 0.24 0.25 0.24 0.23 0.24 0.26 0.26 0.26 0.26 0.25 0.25 0.26 0.26 0.26 0.29 0.34 0.30 0.29 0.32 0.46 0.51 0.52 0.61 0.66 0.67 0.64 0.63 0.64 0.65 0.61 0.61 0.61 0.60 0.62 0.61 0.61 0.62 0.66 0.72 0.78 0.84 0.87 0.90 0.92 0.96 1.01 1.05 1.08 1.11 1.15 1.21 1.22 1.23 1.24 1.27 1.31 1.31 1.26 1.26 1.25 1.24 1.27 1.27 1.27 1.23 1.23 1.26 1.26 1.28 1.30 1.33 1.35 1.36 1.36 1.33 1.30 1.25 1.21 1.19
0.41 0.32 0.35 0.34 0.27 0.26 0.27 0.24 0.23 0.23 0.23 0.23 0.24 0.24 0.24 0.25 0.23 0.24 0.23 0.26 0.26 0.28 0.32 0.30 0.26 0.30 0.45 0.51 0.63 0.61 0.65 0.61 0.59 0.60 0.61 0.62 0.63 0.62 0.61 0.62 0.62 0.62 0.62 0.65 0.72 0.77 0.79 0.85 0.87 0.89 0.95 0.99 1.04 1.07 1.10 1.13 1.18 1.20 1.18 1.22 1.25 1.27 1.30 1.28 1.26 1.22 1.22 1.23 1.24 1.25 1.23 1.23 1.24 1.24 1.22 1.22 1.23 1.28 1.31 1.32 1.30 1.28 1.26 1.21 1.17 1.14
0.39 0.35 0.30 0.32 0.27 0.26 0.27 0.24 0.22 0.23 0.22 0.21 0.22 0.23 0.23 0.25 0.25 0.26 0.25 0.24 0.27 0.31 0.28 0.25 0.26 0.43 0.51 0.44 0.52 0.64 0.65 0.61 0.62 0.63 0.61 0.62 0.65 0.64 0.63 0.63 0.63 0.67 0.69 0.72 0.75 0.79 0.83 0.88 0.91 0.95 0.98 1.02 1.05 1.09 1.14 1.18 1.17 1.16 1.20 1.22 1.26 1.26 1.26 1.23 1.21 1.20 1.20 1.21 1.23 1.23 1.24 1.25 1.23 1.23 1.20 1.19 1.22 1.25 1.27 1.27 1.27 1.24 1.21 1.16 1.15 1.13
0.40 0.37 0.32 0.37 0.28 0.27 0.26 0.23 0.23 0.20 0.17 0.17 0.24 0.26 0.25 0.23 0.23 0.22 0.21 0.20 0.25 0.28 0.29 0.33 0.30 0.41 0.43 0.46 0.47 0.56 0.68 0.66 0.69 0.69 0.71 0.67 0.64 0.65 0.66 0.67 0.70 0.74 0.77 0.79 0.81 0.86 0.89 0.93 0.97 1.01 1.03 1.07 1.12 1.17 1.20 1.20 1.18 1.20 1.24 1.25 1.24 1.21 1.22 1.17 1.16 1.16 1.17 1.20 1.21 1.22 1.23 1.23 1.22 1.21 1.20 1.20 1.20 1.21 1.22 1.22 1.22 1.20 1.19 1.17 1.15 1.12
0.39 0.39 0.37 0.37 0.31 0.25 0.25 0.24 0.20 0.16 0.17 0.42 0.27 0.27 0.25 0.25 0.24 0.23 0.22 0.20 0.23 0.26 0.28 0.30 0.31 0.33 0.42 0.53 0.53 0.55 0.66 0.74 0.81 0.77 0.78 0.76 0.73 0.68 0.66 0.70 0.72 0.73 0.79 0.81 0.81 0.86 0.91 0.94 0.99 1.04 1.07 1.10 1.14 1.17 1.17 1.15 1.18 1.21 1.19 1.19 1.17 1.18 1.18 1.16 1.13 1.13 1.16 1.17 1.20 1.21 1.21 1.21 1.20 1.19 1.18 1.18 1.18 1.17 1.18 1.20 1.20 1.18 1.19 1.18 1.15 1.11
0.38 0.38 0.38 0.33 0.31 0.26 0.23 0.22 0.17 0.17 0.33 0.33 0.29 0.27 0.27 0.26 0.25 0.23 0.22 0.20 0.20 0.24 0.28 0.27 0.28 0.31 0.44 0.53 0.53 0.58 0.73 0.76 0.84 0.86 0.83 0.80 0.77 0.73 0.72 0.73 0.78 0.79 0.80 0.84 0.86 0.89 0.94 0.97 0.99 1.03 1.06 1.12 1.13 1.13 1.13 1.13 1.17 1.15 1.12 1.16 1.14 1.15 1.16 1.16 1.14 1.12 1.13 1.13 1.16 1.18 1.19 1.20 1.18 1.16 1.17 1.17 1.16 1.15 1.16 1.18 1.18 1.17 1.17 1.15 1.13 1.11
0.43 0.42 0.40 0.33 0.31 0.21 0.22 0.21 0.22 0.35 0.30 0.33 0.31 0.28 0.27 0.24 0.23 0.21 0.19 0.20 0.22 0.26 0.28 0.29 0.33 0.36 0.45 0.56 0.56 0.61 0.72 0.78 0.78 0.83 0.90 0.80 0.81 0.82 0.80 0.84 0.82 0.86 0.87 0.92 0.95 0.97 1.03 1.06 1.07 1.08 1.11 1.10 1.10 1.09 1.10 1.13 1.14 1.12 1.11 1.12 1.14 1.15 1.15 1.13 1.12 1.12 1.12 1.12 1.14 1.18 1.20 1.21 1.19 1.16 1.17 1.16 1.14 1.14 1.15 1.15 1.16 1.16 1.15 1.10 1.07 1.03
0.47 0.39 0.43 0.36 0.25 0.25 0.21 0.20 0.25 0.25 0.22 0.26 0.32 0.34 0.35 0.47 0.31 0.28 0.24 0.22 0.28 0.38 0.41 0.39 0.37 0.42 0.49 0.53 0.57 0.64 0.75 0.67 0.63 0.71 0.89 0.89 0.87 0.88 0.88 0.93 0.92 0.97 0.98 0.97 1.03 1.05 1.06 1.09 1.11 1.12 1.09 1.06 1.06 1.09 1.10 1.12 1.12 1.11 1.10 1.10 1.12 1.11 1.09 1.08 1.07 1.08 1.08 1.10 1.12 1.15 1.16 1.18 1.18 1.17 1.16 1.14 1.12 1.13 1.13 1.14 1.14 1.11 1.10 1.04 1.00 0.95
0.43 0.45 0.43 0.38 0.25 0.25 0.23 0.22 0.22 0.22 0.27 0.42 0.42 0.43 0.41 0.42 0.38 0.35 0.28 0.25 0.42 0.49 0.45 0.39 0.37 0.41 0.52 0.57 0.60 0.71 0.65 0.53 0.55 0.70 0.91 0.99 0.95 0.94 0.94 0.93 0.97 1.00 1.02 1.03 1.04 1.02 1.04 1.07 1.08 1.07 1.07 1.06 1.04 1.09 1.13 1.13 1.12 1.10 1.08 1.07 1.07 1.05 1.03 1.03 1.03 1.04 1.06 1.09 1.12 1.13 1.14 1.16 1.16 1.15 1.13 1.12 1.12 1.12 1.10 1.09 1.07 1.06 1.04 1.01 0.97 0.92
0.39 0.40 0.41 0.35 0.29 0.25 0.23 0.23 0.23 0.31 0.31 0.50 0.49 0.45 0.40 0.43 0.40 0.30 0.18 0.28 0.45 0.54 0.48 0.42 0.43 0.52 0.60 0.65 0.70 0.68 0.60 0.50 0.59 0.73 0.97 1.03 1.01 1.00 1.00 0.99 0.98 1.01 1.05 1.09 1.10 1.11 1.10 1.10 1.06 1.04 1.04 1.05 1.08 1.16 1.16 1.16 1.12 1.08 1.05 1.04 1.04 1.02 1.01 1.02 1.04 1.08 1.09 1.10 1.11 1.12 1.14 1.16 1.13 1.12 1.11 1.09 1.09 1.08 1.06 1.05 1.03 1.02 0.99 0.96 0.93 0.90
0.34 0.35 0.37 0.30 0.28 0.25 0.24 0.32 0.36 0.39 0.50 0.61 0.54 0.49 0.44 0.37 0.31 0.19 0.18 0.39 0.53 0.56 0.53 0.45 0.49 0.58 0.67 0.68 0.72 0.65 0.73 0.73 0.81 0.92 1.00 1.03 1.01 1.00 1.03 1.09 1.07 1.09 1.09 1.07 1.09 1.12 1.07 1.05 1.03 1.03 1.06 1.11 1.14 1.15 1.16 1.15 1.10 1.06 1.07 1.06 1.03 1.02 1.05 1.08 1.11 1.10 1.09 1.09 1.08 1.09 1.12 1.14 1.13 1.12 1.10 1.10 1.07 1.06 1.05 1.04 1.01 0.99 0.96 0.93 0.92 0.90
0.33 0.32 0.32 0.34 0.29 0.24 0.27 0.27 0.34 0.41 0.51 0.59 0.51 0.46 0.39 0.30 0.21 0.18 0.48 0.66 0.61 0.62 0.54 0.56 0.59 0.66 0.72 0.71 0.72 0.76 0.79 0.84 0.91 0.95 0.98 1.01 1.01 1.02 1.03 1.06 1.10 1.11 1.15 1.13 1.09 1.07 1.04 1.04 1.05 1.07 1.09 1.13 1.15 1.15 1.15 1.13 1.09 1.08 1.06 1.04 1.03 1.06 1.12 1.13 1.11 1.11 1.09 1.08 1.07 1.09 1.12 1.13 1.15 1.14 1.11 1.10 1.08 1.04 1.02 1.04 1.03 1.01 0.98 0.95 0.92 0.87
0.37 0.31 0.28 0.32 0.35 0.33 0.34 0.33 0.29 0.24 0.38 0.55 0.48 0.40 0.41 0.29 0.38 0.59 0.64 0.63 0.70 0.66 0.60 0.55 0.69 0.70 0.80 0.76 0.83 0.81 0.78 0.80 0.84 0.92 0.97 1.01 1.01 0.99 1.00 1.01 1.02 1.04 1.03 1.03 1.02 1.04 1.04 1.02 1.03 1.05 1.07 1.12 1.15 1.15 1.16 1.14 1.09 1.05 1.04 1.03 1.06 1.12 1.13 1.12 1.11 1.10 1.09 1.09 1.09 1.11 1.13 1.14 1.14 1.12 1.11 1.11 1.08 1.04 1.02 1.03 1.03 1.01 0.98 0.94 0.89 0.85
0.50 0.41 0.36 0.40 0.47 0.32 0.31 0.27 0.32 0.46 0.55 0.62 0.55 0.40 0.46 0.58 0.71 0.69 0.67 0.62 0.62 0.67 0.67 0.63 0.71 0.75 0.76 0.75 0.73 0.77 0.86 0.86 0.90 0.96 0.96 0.99 1.01 1.03 1.02 1.02 1.04 1.03 1.05 1.06 1.06 1.05 1.05 1.04 1.06 1.08 1.11 1.13 1.15 1.16 1.17 1.14 1.08 1.05 1.03 1.04 1.12 1.14 1.14 1.12 1.11 1.12 1.11 1.09 1.10 1.12 1.14 1.15 1.14 1.13 1.12 1.11 1.08 1.05 1.02 1.01 1.01 0.99 0.96 0.93 0.87 0.84
0.56 0.53 0.53 0.41 0.47 0.42 0.40 0.45 0.58 0.62 0.66 0.66 0.61 0.56 0.59 0.66 0.68 0.72 0.68 0.64 0.65 0.62 0.76 0.72 0.66 0.74 0.77 0.75 0.73 0.76 0.85 0.92 0.93 0.96 0.92 0.95 0.98 0.98 0.97 0.97 0.99 0.98 0.98 0.98 0.98 1.04 1.05 1.06 1.04 1.04 1.07 1.11 1.13 1.15 1.17 1.17 1.11 1.08 1.05 1.10 1.13 1.11 1.09 1.10 1.08 1.07 1.07 1.07 1.09 1.12 1.14 1.15 1.14 1.13 1.12 1.10 1.07 1.03 1.00 0.99 0.99 0.96 0.94 0.89 0.85 0.83
0.63 0.65 0.65 0.57 0.52 0.65 0.65 0.63 0.67 0.65 0.67 0.64 0.67 0.65 0.63 0.66 0.71 0.72 0.68 0.62 0.64 0.67 0.66 0.65 0.69 0.73 0.81 0.83 0.76 0.77 0.82 0.87 0.91 0.94 0.95 0.98 0.97 0.99 1.00 0.98 0.97 0.99 0.97 0.97 0.95 0.97 0.98 1.01 1.04 1.03 1.01 1.04 1.09 1.13 1.17 1.18 1.15 1.08 1.11 1.15 1.13 1.10 1.08 1.07 1.04 1.04 1.06 1.08 1.09 1.10 1.11 1.11 1.11 1.11 1.09 1.07 1.06 1.03 1.01 1.00 0.98 0.94 0.91 0.87 0.84 0.82
0.59 0.64 0.56 0.51 0.59 0.52 0.41 0.63 0.65 0.67 0.68 0.67 0.65 0.66 0.67 0.68 0.68 0.70 0.66 0.67 0.64 0.67 0.67 0.66 0.69 0.73 0.75 0.77 0.80 0.77 0.81 0.88 0.89 0.93 0.97 0.97 0.96 0.97 0.96 0.94 0.95 0.96 0.96 0.95 0.98 0.99 0.99 1.01 1.00 1.02 1.03 1.02 1.08 1.12 1.16 1.15 1.14 1.14 1.15 1.11 1.09 1.07 1.05 1.03 1.02 1.02 1.04 1.06 1.08 1.09 1.09 1.08 1.06 1.05 1.05 1.04 1.04 1.02 1.03 1.02 0.97 0.92 0.89 0.86 0.83 0.81
0.46 0.65 0.54 0.57 0.53 0.50 0.50 0.59 0.64 0.68 0.69 0.71 0.71 0.67 0.65 0.67 0.68 0.70 0.70 0.70 0.71 0.70 0.70 0.71 0.74 0.74 0.76 0.80 0.78 0.78 0.79 0.86 0.88 0.90 0.92 0.94 0.94 0.94 0.94 0.93 0.92 0.93 0.96 0.98 0.99 0.99 0.97 0.97 0.96 0.97 1.00 1.00 1.07 1.10 1.10 1.08 1.08 1.10 1.07 1.06 1.06 1.04 1.02 0.99 0.98 0.99 1.01 1.04 1.05 1.04 1.04 1.03 1.03 1.02 1.02 1.02 1.01 0.99 0.98 0.96 0.93 0.90 0.87 0.84 0.82 0.77
0.61 0.62 0.48 0.59 0.51 0.59 0.65 0.64 0.64 0.66 0.66 0.68 0.70 0.72 0.74 0.74 0.73 0.71 0.72 0.71 0.70 0.69 0.69 0.71 0.74 0.75 0.76 0.74 0.80 0.79 0.80 0.81 0.86 0.89 0.89 0.87 0.89 0.89 0.89 0.90 0.91 0.90 0.92 0.91 0.94 0.96 0.91 0.89 0.91 0.93 0.94 0.96 1.01 1.02 1.01 1.01 1.05 1.05 1.03 1.04 1.04 1.02 0.98 0.97 0.98 0.99 1.00 1.01 1.01 1.01 1.02 1.01 1.00 1.00 0.99 0.98 0.98 0.96 0.95 0.92 0.90 0.89 0.87 0.85 0.86 0.79
0.59 0.50 0.59 0.54 0.47 0.50 0.51 0.55 0.61 0.49 0.49 0.60 0.68 0.72 0.74 0.75 0.76 0.73 0.72 0.70 0.71 0.70 0.68 0.70 0.71 0.74 0.78 0.81 0.82 0.83 0.80 0.81 0.81 0.86 0.85 0.88 0.87 0.88 0.87 0.86 0.86 0.85 0.87 0.89 0.90 0.89 0.88 0.85 0.86 0.88 0.89 0.91 0.95 1.00 1.01 1.00 1.00 1.02 1.04 1.03 1.01 1.00 0.96 0.97 0.98 0.98 0.97 0.97 0.98 0.98 0.97 0.96 0.96 0.96 0.95 0.94 0.91 0.90 0.92 0.94 0.92 0.89 0.84 0.82 0.84 0.80
0.56 0.58 0.55 0.50 0.49 0.48 0.65 0.68 0.69 0.69 0.65 0.69 0.72 0.76 0.78 0.75 0.73 0.72 0.71 0.71 0.71 0.74 0.77 0.72 0.68 0.71 0.74 0.79 0.85 0.84 0.82 0.83 0.84 0.83 0.82 0.83 0.88 0.89 0.89 0.86 0.83 0.83 0.85 0.87 0.83 0.82 0.81 0.83 0.84 0.86 0.87 0.89 0.91 0.95 1.00 1.00 1.00 1.00 1.01 0.99 0.98 0.97 0.96 0.97 0.96 0.95 0.94 0.94 0.94 0.95 0.94 0.94 0.94 0.93 0.93 0.92 0.90 0.90 0.89 0.87 0.86 0.86 0.86 0.85 0.83 0.79
Wind_Speed
44 43 44 46 47 48 49 49 48 44 40 38 37 36 37 37 34 34 35 33 32 32 34 36 35 34 34 35 35 33 31 32 33 33 33 32 32 32 31 31 30 29 28 26 26 26 27 26 26 26 26 27 27 26 26 25 24 24 23 21 20 19 19 19 18 18 19 19 19 18 18 18 18 18 18 18 18 17 17 18 18 18 17 17 16 16
45 45 46 48 47 46 47 47 46 45 42 38 37 36 36 37 35 34 34 34 32 30 30 33 35 35 34 33 34 35 34 32 32 32 32 32 32 32 31 31 30 29 27 26 25 26 26 26 26 25 25 26 27 26 26 25 24 24 23 21 20 19 19 19 19 19 19 19 19 18 18 18 18 19 19 19 19 18 18 19 19 19 18 18 17 17
44 47 48 48 46 44 45 46 46 46 45 39 35 36 35 35 35 33 33 34 32 28 28 30 32 33 33 33 33 34 35 33 32 32 32 32 32 32 31 30 30 29 28 27 26 26 27 26 26 25 25 26 26 26 25 25 24 24 22 21 21 20 19 19 19 19 19 19 18 18 18 18 19 19 19 19 20 19 19 20 20 19 19 19 19 18
42 46 48 46 45 45 44 45 46 44 43 40 36 35 34 34 36 33 32 35 33 28 27 28 29 29 30 32 33 33 34 34 34 33 32 32 32 32 32 30 30 31 30 28 27 27 26 26 26 26 25 25 26 26 25 25 24 23 22 22 21 20 19 19 19 19 18 18 18 17 18 18 19 19 19 20 20 20 20 21 21 20 20 20 20 19
41 43 45 44 45 46 44 44 45 43 41 41 39 37 34 34 36 34 31 33 32 29 28 27 27 28 29 30 32 32 33 34 34 34 33 32 32 32 32 31 30 31 31 29 28 28 27 27 26 26 25 26 26 26 25 25 24 22 22 22 21 20 19 19 19 18 18 18 17 17 18 18 19 19 20 20 21 21 21 21 21 21 21 20 20 19
40 40 42 44 44 45 44 42 44 43 40 40 40 39 36 34 35 35 32 30 30 30 30 29 26 26 28 30 30 30 31 33 33 34 34 32 33 32 32 32 31 31 31 29 29 28 27 27 27 27 26 26 26 25 25 25 23 23 22 22 20 20 19 19 19 18 17 17 18 18 18 19 19 20 21 21 21 21 21 22 22 21 21 20 19 18
38 39 40 42 44 44 44 42 43 43 40 37 39 39 38 35 34 35 34 30 29 29 29 30 28 24 25 29 30 30 31 33 33 33 34 33 33 33 32 32 32 31 31 30 29 29 28 28 28 28 27 27 26 25 25 24 23 23 22 22 21 20 19 19 19 19 18 17 17 18 19 19 20 20 21 22 22 21 22 22 21 21 20 19 18 16
37 38 39 41 43 43 42 42 43 43 40 36 37 38 37 34 33 34 34 30 28 27 27 31 31 26 25 26 29 31 31 32 34 34 33 33 33 33 33 32 31 31 31 31 30 29 29 29 28 28 28 27 26 25 24 23 23 23 22 21 21 20 20 19 19 19 18 17 17 18 19 20 20 20 20 21 22 22 22 22 21 20 19 18 16 15
37 37 37 40 42 41 41 41 41 42 40 36 36 38 37 33 32 33 32 29 27 26 27 30 31 27 26 25 25 30 33 32 33 34 33 33 33 33 33 33 32 31 31 31 31 29 29 29 29 29 28 27 26 25 24 23 23 23 22 21 21 21 20 20 19 19 18 18 17 17 17 18 19 19 20 20 21 22 22 21 20 19 18 17 16 15
35 36 35 38 40 40 40 41 41 41 40 36 34 36 37 33 31 31 31 28 27 27 27 29 31 27 25 26 25 27 31 32 30 31 32 31 32 32 33 32 32 31 30 31 31 29 28 29 29 28 28 26 26 24 24 23 23 23 22 21 22 21 20 20 19 19 19 18 18 17 16 17 18 19 19 20 20 21 21 20 19 19 18 17 17 16
32 34 34 35 37 38 38 39 39 40 40 37 33 33 34 33 30 30 30 29 27 28 30 31 31 28 24 25 27 26 26 29 29 28 29 31 31 32 32 32 32 31 30 30 31 29 28 28 29 28 28 26 25 24 23 23 23 23 22 21 21 21 20 20 19 19 18 18 18 18 18 18 18 18 19 19 20 20 20 19 19 19 19 18 17 17
29 33 34 35 36 37 37 37 37 38 41 37 32 32 33 31 29 29 29 29 28 28 31 32 31 29 26 23 25 26 25 26 28 28 28 30 31 31 31 32 31 31 30 30 31 29 28 28 29 29 28 26 25 24 23 23 23 23 22 21 21 21 20 20 19 19 18 18 19 19 19 19 19 19 19 19 19 19 19 19 19 19 19 19 18 17
28 32 35 35 36 37 36 35 35 36 40 38 32 32 32 30 29 28 28 29 29 27 28 32 32 29 27 25 24 24 26 27 26 27 28 29 30 31 31 31 31 30 30 29 30 29 28 28 29 28 27 26 25 24 23 23 23 23 22 22 22 21 20 19 19 19 19 18 18 18 18 19 19 19 19 19 18 18 19 19 19 19 19 18 18 18
26 30 36 35 35 38 36 34 35 36 40 39 35 34 33 30 29 29 29 28 28 27 26 30 31 28 26 26 26 23 22 27 27 26 27 28 29 30 30 31 30 30 30 29 29 29 28 28 28 28 27 25 24 24 24 24 23 23 23 22 22 21 20 20 19 19 19 18 18 17 17 18 18 18 19 19 18 18 18 19 19 19 18 18 18 17
25 28 35 35 34 37 37 35 35 36 39 38 36 35 33 30 29 28 28 28 27 27 27 28 28 29 26 23 26 25 19 21 26 26 26 27 28 29 29 30 30 30 29 28 29 29 28 28 28 27 26 25 25 24 24 24 23 23 23 22 22 21 20 20 20 19 19 18 17 17 17 17 18 18 18 18 18 18 17 18 19 19 18 18 17 17
24 25 32 35 33 35 37 35 35 36 36 36 34 33 31 29 28 25 24 24 25 25 26 27 24 25 25 20 22 26 23 20 22 24 25 26 27 28 29 30 29 29 29 28 29 29 28 28 27 27 27 26 25 24 24 24 23 23 22 22 22 21 21 21 19 18 18 18 17 16 16 17 17 18 18 18 17 17 17 17 18 18 18 18 18 17
22 22 30 35 33 35 36 35 36 36 34 34 34 33 31 28 25 24 22 20 23 24 24 26 25 23 24 22 21 25 25 23 22 23 24 25 27 28 28 29 29 29 29 28 29 28 27 27 27 27 27 26 25 24 24 24 23 23 23 22 21 21 21 21 19 18 18 17 17 17 17 16 16 17 18 18 18 18 17 17 18 19 18 18 18 17
20 19 28 35 34 35 36 34 35 36 33 32 33 33 30 27 24 24 23 21 24 24 22 25 28 25 24 22 23 26 26 25 25 24 24 24 26 27 27 28 29 29 29 28 28 28 27 27 27 27 27 26 25 24 24 24 23 23 23 22 21 21 21 20 19 18 17 17 17 17 17 16 16 16 17 18 18 17 17 18 19 19 19 18 17 16
18 18 25 33 34 34 36 33 32 35 34 31 31 31 29 27 25 24 24 23 25 24 21 24 27 27 25 21 23 27 27 26 27 26 25 25 25 26 26 27 28 28 28 28 28 27 27 27 26 26 26 25 24 24 24 23 23 23 23 22 22 21 21 19 18 17 16 16 17 16 16 15 16 16 17 17 17 17 17 18 19 19 18 17 16 15
17 18 22 30 33 34 35 32 30 33 34 31 29 30 29 27 24 23 23 23 25 24 21 23 23 25 26 23 22 25 25 26 27 26 26 26 26 25 25 26 27 28 28 27 27 27 27 26 26 25 25 24 24 24 23 23 23 23 22 21 21 20 20 19 18 17 16 16 16 15 15 14 15 15 15 15 15 16 16 17 18 18 17 16 15 14
16 18 20 26 32 33 33 33 32 33 34 32 30 31 31 27 23 23 22 22 24 23 21 20 19 20 24 25 22 22 23 24 26 26 25 26 27 27 26 26 26 27 27 26 25 26 26 25 25 24 24 24 23 23 23 24 23 23 22 21 20 20 19 19 18 16 15 16 16 15 14 13 14 14 14 14 14 14 14 15 16 17 16 16 15 14
16 17 19 25 29 31 33 34 33 33 33 31 31 31 31 28 25 23 23 22 22 22 22 20 17 15 18 23 23 21 21 22 25 26 25 26 27 27 27 26 26 26 26 25 25 25 25 24 24 24 23 23 23 23 24 24 23 23 21 21 20 19 19 19 17 16 16 16 15 15 14 13 13 13 13 13 13 13 13 14 15 16 16 15 15 15
16 15 19 24 28 29 32 33 32 33 33 30 29 29 28 28 26 23 22 22 21 19 20 22 19 13 14 19 21 20 20 21 23 25 25 25 26 27 27 26 26 26 25 25 25 24 24 23 23 23 23 23 23 23 24 24 23 22 21 21 20 19 20 19 17 16 16 15 14 14 14 13 13 12 12 13 13 13 14 15 15 16 16 15 15 15
15 15 19 23 25 26 29 31 31 31 31 29 28 28 27 27 27 23 20 21 21 18 18 18 18 16 15 16 18 19 20 20 22 24 25 25 25 26 27 26 25 25 25 25 24 24 23 23 22 22 22 23 23 23 23 23 23 22 21 21 20 20 20 19 17 16 16 15 15 14 14 13 13 13 13 13 13 14 14 15 15 15 15 16 15 14
15 15 18 21 23 24 25 27 30 31 31 29 28 29 29 28 28 23 19 20 21 20 18 15 15 16 17 17 17 19 20 20 19 21 23 24 24 24 25 25 25 25 25 25 24 24 23 23 22 22 22 22 23 23 23 23 22 22 21 21 21 20 20 19 17 16 16 15 15 15 14 14 13 13 13 13 14 14 15 15 15 15 15 15 14 14
14 13 18 20 22 23 24 27 31 32 31 30 30 31 29 29 30 25 20 19 20 22 20 14 12 14 15 15 18 20 21 21 20 20 21 23 24 24 24 25 25 24 25 25 25 24 23 23 22 22 22 22 22 23 23 22 21 21 21 21 20 20 19 18 17 17 16 15 15 14 14 14 12 12 13 13 14 15 15 15 15 15 15 15 14 14
12 12 17 20 21 23 25 29 31 32 32 32 33 32 30 30 31 27 21 18 19 22 21 13 11 14 14 13 15 18 21 22 22 21 21 22 23 23 23 24 24 24 25 25 25 24 23 23 22 22 22 21 22 22 22 21 21 21 21 21 20 20 18 17 16 16 16 15 14 14 15 14 13 12 13 13 13 14 15 15 15 15 15 15 14 14
11 12 17 19 19 20 23 27 31 32 32 32 33 33 31 29 30 28 24 19 18 20 19 13 11 13 13 11 12 15 18 21 21 21 22 22 23 23 23 24 24 24 25 25 24 24 23 23 23 22 21 21 22 21 21 21 21 21 21 20 20 19 18 17 16 15 15 15 14 14 14 14 13 12 12 12 13 14 15 16 15 15 15 14 14 13
10 13 17 18 18 18 21 26 30 32 31 29 30 31 30 30 30 30 27 22 19 18 16 14 12 11 10 9 10 12 16 19 21 21 21 22 22 22 23 24 24 25 25 25 24 24 23 23 23 22 21 21 22 21 20 20 21 21 20 20 19 18 17 17 16 15 15 15 14 14 14 13 12 12 11 12 13 14 15 16 16 15 15 15 14 13
10 11 16 18 17 17 19 24 30 32 30 29 29 30 30 30 30 30 28 24 20 16 13 13 12 10 8 7 8 11 15 18 20 21 21 22 22 23 23 24 25 25 25 25 24 24 23 23 23 22 21 22 22 22 21 21 21 21 20 19 19 18 17 16 16 15 15 15 15 15 14 14 13 12 11 12 12 13 15 16 16 16 15 15 14 12
9 11 15 17 16 16 18 22 27 30 30 29 29 29 31 31 30 30 29 26 21 16 13 14 14 12 10 7 7 10 14 17 20 21 21 22 22 23 24 25 25 25 25 24 24 24 23 23 23 22 22 22 22 22 21 21 21 21 20 19 19 18 17 16 16 16 15 15 15 15 15 14 13 12 12 12 12 13 14 16 16 15 15 14 13 12
9 11 13 15 15 16 19 22 25 27 28 28 29 30 31 31 30 30 29 27 23 18 16 15 13 12 11 9 8 10 13 16 19 21 21 22 22 23 24 25 25 25 24 24 24 24 24 23 23 22 22 22 22 22 21 21 21 20 19 18 18 17 16 16 16 16 15 15 15 16 15 14 14 13 13 12 12 13 14 14 15 15 14 13 12 12
10 10 11 13 14 15 19 22 24 26 25 26 28 30 30 29 29 28 28 27 24 19 17 15 12 10 10 9 8 10 12 15 17 19 21 21 22 23 24 25 25 24 24 24 24 24 23 22 22 22 22 22 22 21 21 20 20 19 19 19 18 17 16 16 16 16 15 15 16 16 15 15 15 14 14 13 12 13 14 14 15 14 13 13 12 12
9 10 9 11 12 16 20 21 23 24 23 22 26 28 28 28 28 26 26 27 25 21 18 15 12 11 10 9 9 10 12 14 16 18 20 21 22 23 24 25 24 23 23 23 24 24 23 22 22 22 22 21 22 22 21 19 18 19 19 18 17 16 16 16 16 16 16 16 16 16 16 15 15 14 14 13 13 13 14 14 14 14 13 13 12 12
9 9 8 9 12 16 20 20 21 22 20 19 22 26 27 26 26 25 24 26 25 22 19 17 14 12 10 10 10 10 12 13 15 18 20 21 22 23 24 24 23 23 23 23 24 24 23 23 23 22 22 21 21 21 20 19 19 19 18 17 16 16 16 16 15 16 16 16 16 17 17 16 16 15 14 14 14 14 14 14 14 14 14 13 12 12
8 8 7 8 12 17 20 19 18 18 18 18 20 24 25 24 24 23 23 25 25 22 20 18 16 13 11 11 11 11 12 13 15 17 19 21 22 22 23 23 23 22 22 22 23 23 23 23 23 22 21 21 20 20 19 19 20 18 17 16 16 16 16 16 15 16 16 16 16 17 17 17 16 15 15 15 14 14 14 14 14 14 14 13 13 13
8 9 8 9 13 18 20 19 17 16 17 18 19 22 22 22 23 23 22 23 23 21 20 18 16 14 12 12 11 12 13 14 15 17 19 21 22 23 23 22 22 22 22 22 23 23 23 23 22 21 21 21 20 20 19 19 19 18 17 16 16 16 16 16 16 16 16 16 17 17 17 17 17 16 16 15 15 15 15 15 15 15 14 14 14 14
10 10 9 9 13 18 18 17 17 16 16 17 18 20 20 19 20 21 21 21 21 20 19 17 16 15 13 13 12 13 14 15 15 16 18 20 22 22 22 22 22 22 23 23 23 23 23 22 22 21 21 21 20 19 19 18 18 18 17 16 16 16 15 15 15 16 16 17 17 17 18 18 18 17 16 16 16 15 15 16 15 15 15 15 15 14
13 12 10 10 13 17 17 15 16 15 14 15 17 19 20 20 20 20 20 19 18 18 19 18 17 15 14 14 14 14 15 16 15 16 18 20 21 22 22 22 22 22 22 22 22 22 23 23 22 22 22 21 20 19 18 18 18 17 17 17 16 16 16 15 15 16 16 16 17 17 18 19 18 17 17 17 17 16 16 16 15 15 15 15 15 15
13 12 12 12 13 16 16 14 14 14 13 13 15 18 21 21 21 21 19 17 17 17 18 18 17 16 15 15 15 15 15 15 16 16 17 18 20 21 21 22 22 22 22 22 22 22 23 23 22 22 22 21 19 18 18 18 17 17 17 17 17 16 16 16 15 16 16 16 16 17 18 18 18 18 18 17 17 16 15 15 15 16 16 15 15 15
13 13 13 12 13 16 16 13 12 13 13 12 13 17 21 22 22 20 17 16 16 16 17 17 17 16 16 15 15 14 14 14 16 17 18 18 18 20 21 21 22 22 22 22 22 22 23 23 22 22 22 21 19 18 18 18 17 17 16 16 16 16 16 15 15 15 15 16 17 18 18 18 19 19 17 16 16 16 16 15 16 16 15 15 15 15
11 12 12 11 11 14 15 12 12 13 12 12 14 18 21 21 20 18 15 15 16 16 16 17 16 16 17 16 14 14 14 15 17 18 19 19 18 19 20 20 21 22 22 22 22 22 22 22 22 21 21 20 19 18 18 18 17 17 16 16 16 16 16 15 15 15 15 16 17 18 18 18 19 18 17 16 16 16 16 16 16 16 16 16 15 15
9 10 11 10 9 13 14 13 13 13 11 12 15 18 19 18 17 16 15 15 16 15 16 17 16 16 17 15 14 13 14 17 19 19 20 19 19 19 20 19 20 21 21 21 21 21 21 21 21 21 20 20 19 18 18 18 17 16 16 16 16 16 15 15 14 15 15 16 17 18 18 18 18 17 16 16 16 16 16 16 16 16 16 16 16 15
8 7 9 9 9 11 12 12 12 13 12 12 15 17 17 16 16 15 14 15 15 15 15 16 17 17 17 15 14 14 14 17 19 19 19 19 19 19 19 19 19 20 20 20 20 20 20 20 20 20 20 20 20 19 19 19 17 16 16 16 16 16 15 15 14 14 15 15 16 18 18 18 17 16 16 16 16 17 17 17 17 16 17 17 16 15
7 6 8 10 9 9 11 12 12 12 13 13 14 16 16 15 15 14 13 14 15 14 14 15 16 17 17 16 15 14 15 16 17 18 18 18 18 19 19 19 19 19 19 19 19 20 19 19 19 19 19 20 20 20 20 20 19 18 17 17 16 16 15 15 14 14 15 15 16 17 18 18 17 17 17 17 17 17 17 18 17 17 17 17 16 16
7 7 9 11 10 10 11 12 12 12 13 14 14 14 14 14 14 13 12 13 13 13 13 14 15 16 17 16 15 15 16 16 17 17 18 18 18 18 19 19 19 18 18 19 19 19 20 19 19 19 20 20 20 20 20 20 19 18 17 17 17 16 16 15 15 15 15 16 16 17 17 17 17 18 18 18 18 18 18 18 17 17 17 17 17 16
7 7 9 11 10 10 11 12 11 11 12 13 13 13 13 13 13 13 12 12 12 12 13 13 14 16 17 16 15 15 16 17 17 17 17 17 17 18 18 18 18 18 19 19 19 19 19 20 20 20 20 20 20 19 20 19 18 18 18 17 17 17 16 16 16 16 16 16 17 17 17 17 17 17 18 18 18 18 18 17 18 18 18 18 17 17
7 6 8 10 10 10 11 11 11 11 11 11 12 12 12 12 13 13 12 12 12 12 12 13 14 15 15 15 15 15 16 17 18 17 16 16 17 17 18 18 18 18 18 19 19 19 19 19 19 19 20 20 19 19 19 18 18 17 17 17 17 17 17 16 17 17 17 17 17 18 18 18 18 18 18 18 18 18 18 18 18 18 18 18 18 17
6 6 8 9 10 10 10 10 10 10 11 10 10 11 11 11 12 12 12 12 12 11 12 12 13 14 14 15 16 16 16 16 17 17 17 17 17 17 18 18 18 18 18 18 19 19 19 18 19 19 19 19 19 19 19 18 17 17 17 17 17 17 17 17 17 17 18 18 18 18 18 18 19 19 19 18 18 18 18 18 18 19 19 19 18 17
6 7 7 9 10 9 8 9 10 10 10 9 9 9 10 11 11 11 11 11 11 11 11 12 12 13 14 15 16 16 16 16 16 17 17 17 17 18 18 18 18 18 18 18 18 18 18 18 18 19 19 19 19 20 20 18 17 18 18 17 17 18 17 17 18 18 18 18 18 19 19 19 19 19 19 19 19 18 17 17 17 17 19 19 18 17
7 8 7 8 9 8 6 7 10 10 9 9 8 8 9 10 10 10 10 10 10 10 11 11 12 12 13 13 14 15 15 15 16 16 17 17 18 18 18 18 19 18 19 19 19 19 18 18 18 19 19 19 20 20 21 20 19 19 19 18 18 18 18 18 19 19 19 19 19 19 19 19 19 19 19 19 19 19 18 18 17 16 17 18 18 17
Wind_Direction
217 218 218 217 217 216 216 218 220 220 220 220 220 222 222 222 224 222 222 221 218 220 224 226 229 229 229 229 229 229 227 227 227 228 229 228 227 227 226 226 226 227 228 225 221 220 220 220 220 220 221 221 221 221 222 221 224 227 230 232 236 239 242 245 246 244 244 245 247 250 250 247 244 242 240 237 237 236 236 236 236 238 239 239 239 239
216 219 218 217 217 216 216 217 218 219 220 221 221 221 222 221 222 221 221 220 217 220 225 226 229 230 228 228 228 228 228 226 225 226 227 227 226 225 225 224 224 225 225 222 219 218 218 218 218 219 220 219 219 219 220 221 224 227 229 232 235 238 241 244 244 242 242 244 245 248 248 246 243 241 240 238 237 238 239 237 237 238 239 238 238 238
216 218 217 216 216 216 216 216 216 217 218 220 221 221 221 219 219 220 218 217 216 221 225 224 227 229 228 228 228 226 227 226 224 225 227 226 225 223 223 223 222 223 222 219 218 217 216 216 216 217 218 218 218 218 219 221 223 227 229 233 237 239 240 241 240 240 241 243 244 246 246 244 242 241 240 240 240 241 242 240 239 239 238 237 237 237
215 216 215 215 214 214 214 214 214 215 216 218 219 218 219 217 216 217 215 215 217 220 223 223 227 229 227 227 228 226 226 226 225 224 225 225 224 222 221 222 222 221 220 218 218 217 215 215 214 215 217 217 218 218 219 222 224 227 231 235 238 238 239 239 237 238 241 242 244 245 247 246 244 242 240 241 241 242 243 242 241 241 239 237 236 236
216 214 213 214 213 212 212 212 211 212 213 216 217 217 218 217 214 214 214 214 218 221 222 223 228 229 226 225 226 225 225 225 224 223 223 223 222 222 221 221 222 221 219 218 217 216 214 214 213 214 216 217 217 218 220 223 225 228 232 234 235 236 237 237 235 236 240 242 243 245 247 248 247 244 241 241 241 241 243 243 242 241 238 235 234 234
215 212 211 212 211 210 211 210 209 209 211 214 216 216 217 215 213 213 213 212 216 221 219 219 226 228 224 224 224 223 223 224 223 222 222 221 220 221 222 221 221 221 219 218 216 215 214 212 212 213 215 216 217 219 221 223 225 228 231 232 234 236 235 235 234 236 240 242 243 245 246 248 248 246 243 241 241 242 243 243 241 240 239 235 232 231
211 209 209 209 209 208 209 210 208 207 209 213 213 212 214 215 213 212 212 211 216 220 216 216 224 229 225 224 223 221 222 221 221 222 221 220 220 219 221 221 220 220 219 217 216 215 213 211 211 212 214 216 218 220 222 224 226 227 230 232 233 235 234 234 234 236 239 242 244 246 247 248 248 247 245 243 242 243 244 244 242 240 240 238 234 233
208 207 206 206 206 206 207 208 207 205 208 211 209 208 211 213 212 210 211 215 218 219 217 216 222 229 228 224 220 219 222 220 219 221 220 220 220 218 219 220 219 219 219 218 217 215 213 211 210 211 213 216 219 221 222 224 225 227 230 232 232 234 234 235 235 235 239 243 245 247 249 249 248 246 244 243 243 242 242 244 243 240 241 240 236 236
204 206 205 203 204 205 206 207 205 204 207 209 206 207 210 211 212 211 211 215 216 217 218 215 215 224 228 224 220 217 219 220 217 218 219 219 219 217 217 218 218 218 218 218 217 216 213 211 210 210 213 216 218 220 222 223 225 228 231 231 231 233 235 235 235 235 238 242 245 247 248 248 247 245 244 243 243 242 240 241 240 238 239 238 234 235
203 205 204 202 202 203 204 205 204 204 205 206 205 206 208 212 215 213 211 213 216 219 220 214 211 219 225 223 221 218 216 218 216 216 217 217 217 216 216 217 217 218 217 217 217 216 214 212 210 211 212 215 218 220 222 223 225 228 230 230 229 231 235 235 234 236 239 242 244 245 246 248 247 244 244 243 242 241 239 237 236 236 236 234 233 235
202 202 202 201 201 202 202 202 203 203 202 204 205 203 204 208 211 211 212 215 219 221 220 216 212 216 223 221 220 220 217 216 215 215 216 215 215 216 215 215 216 216 216 216 216 215 213 212 211 211 212 214 217 219 221 223 226 228 229 228 227 229 233 234 234 236 239 242 244 245 246 249 248 244 243 242 241 242 240 237 237 237 235 234 234 234
202 200 199 200 200 199 199 200 203 202 201 202 203 200 199 202 205 208 211 214 219 220 217 217 214 215 221 220 218 219 218 216 214 214 215 214 214 214 213 214 215 215 215 215 215 214 213 212 211 210 211 212 215 217 221 224 225 227 227 226 226 228 230 233 235 237 239 243 246 247 247 248 248 244 241 240 241 241 240 238 239 238 235 233 232 232
201 197 196 198 199 198 198 198 199 198 198 199 199 197 197 199 202 206 208 211 217 219 215 214 214 216 221 221 219 220 217 215 215 214 214 213 212 212 212 212 213 214 214 214 214 214 213 211 211 210 210 211 214 217 219 222 223 225 227 225 224 226 229 233 236 237 239 243 247 248 247 247 247 243 239 239 240 241 240 239 238 237 234 230 228 230
196 195 194 197 198 199 199 196 194 194 195 197 197 196 197 198 200 204 207 210 214 216 214 212 213 219 223 220 219 222 217 213 215 215 212 211 211 210 210 211 211 212 213 212 213 213 211 210 211 210 210 211 214 216 217 219 222 225 226 225 224 225 228 232 235 237 239 243 246 246 244 244 244 242 239 239 240 241 240 239 236 232 229 226 225 226
192 193 194 195 194 196 199 197 194 193 193 197 198 198 200 201 202 204 206 210 210 211 212 210 212 217 219 217 216 218 218 211 210 212 211 210 210 209 208 209 210 211 211 211 212 212 210 210 210 209 210 211 213 215 216 218 222 225 226 225 224 225 228 232 235 237 238 241 243 243 242 243 243 242 239 239 241 241 239 237 231 226 224 222 222 224
193 194 193 194 193 193 195 196 194 192 192 195 197 200 202 201 202 205 207 210 210 209 211 211 213 216 215 216 215 212 213 211 206 207 209 209 208 207 208 209 209 210 210 210 211 211 210 210 209 209 210 211 212 214 216 218 223 226 225 224 224 225 229 231 233 236 236 237 240 242 242 243 243 242 239 239 241 241 238 234 227 221 219 219 222 225
193 192 189 191 193 193 193 193 193 193 192 193 197 200 201 200 201 203 205 209 209 210 210 208 212 214 212 216 216 209 209 209 208 209 209 208 207 206 207 208 208 209 209 210 211 210 209 208 208 208 210 211 212 214 216 219 224 225 224 223 223 225 229 230 231 234 235 236 240 241 242 242 241 240 238 239 241 241 237 230 223 220 219 220 223 225
192 189 187 189 191 191 192 192 194 195 194 194 199 200 198 200 203 203 204 205 206 209 208 206 209 211 211 213 212 210 210 209 210 212 210 208 207 206 206 207 208 209 209 209 210 209 208 208 207 208 210 211 212 214 217 220 223 224 223 222 222 225 227 228 229 232 233 236 239 240 242 242 240 239 238 238 241 240 232 224 220 220 220 222 223 223
194 189 186 189 190 189 190 192 193 196 197 198 199 197 195 198 200 200 203 204 204 206 207 206 209 212 214 214 208 207 210 210 210 211 209 208 208 206 205 206 206 206 207 209 209 208 208 208 208 208 209 210 212 215 217 219 221 222 221 221 222 224 225 224 226 230 232 235 239 240 241 241 240 239 238 239 241 236 226 220 218 218 218 218 218 219
190 185 183 188 189 187 190 193 192 192 195 197 196 195 196 199 199 200 203 204 203 205 207 207 208 213 215 214 207 204 207 209 209 209 209 208 207 206 204 204 205 206 207 208 208 208 208 209 208 208 209 211 212 214 216 217 218 219 218 219 220 221 221 221 224 228 232 236 237 237 239 240 238 237 236 237 237 230 221 218 217 216 214 213 214 214
185 183 182 184 186 188 190 193 192 189 190 192 192 192 195 197 200 201 203 205 204 205 207 205 207 213 213 211 209 205 204 208 208 207 208 208 206 205 205 205 206 207 207 206 206 207 208 208 208 208 209 210 211 213 214 215 216 216 217 217 217 217 217 219 223 228 232 234 234 233 235 235 233 233 232 230 227 221 218 218 215 213 213 212 211 211
184 185 183 180 183 189 190 190 192 191 189 190 191 192 192 194 196 198 200 203 204 205 208 208 209 210 207 208 210 205 201 206 208 207 208 207 205 204 205 205 205 205 205 204 204 205 206 207 207 206 207 208 209 210 212 213 214 214 215 215 214 214 215 219 222 227 229 230 230 229 230 230 228 229 228 224 221 219 219 217 214 214 213 211 209 209
183 184 185 181 183 188 187 187 191 192 190 191 192 193 193 194 196 197 197 199 202 203 205 208 210 206 198 204 208 204 200 202 205 206 207 205 204 204 203 204 203 203 204 203 203 203 204 205 205 205 205 206 207 208 209 211 212 213 214 212 211 212 215 219 222 223 225 225 225 224 224 225 225 225 223 221 221 222 222 221 219 217 213 209 209 210
179 182 184 181 181 184 184 186 191 192 191 192 193 194 195 195 196 200 198 196 201 201 197 199 204 202 201 206 208 205 204 203 202 203 204 204 203 203 202 201 201 202 202 202 202 202 203 204 203 203 204 205 206 207 208 209 210 212 212 209 209 212 216 219 221 221 221 221 221 221 221 223 224 222 222 223 224 224 224 223 220 216 211 209 210 210
177 182 182 178 177 179 181 185 190 191 192 192 192 194 196 195 196 200 198 194 199 200 194 195 199 199 202 208 207 204 203 201 199 199 200 200 200 200 200 200 201 201 200 200 200 200 201 201 202 202 203 204 205 206 207 209 210 210 209 207 208 212 216 220 220 218 218 217 218 220 222 224 225 224 223 226 225 224 222 218 214 211 209 209 209 209
179 185 182 177 176 178 181 185 187 188 190 192 193 194 195 195 194 195 194 193 196 198 199 200 197 194 197 200 201 201 201 199 199 199 198 196 197 199 199 200 200 200 199 198 198 198 199 199 200 200 201 203 205 206 207 208 209 207 205 205 208 211 215 218 217 216 216 216 217 219 220 222 224 225 225 226 225 222 219 214 210 210 210 210 210 210
181 186 184 182 181 182 184 186 186 187 189 192 193 193 194 194 193 193 195 194 192 194 196 194 186 186 187 189 192 196 199 198 197 198 197 196 197 198 198 198 199 199 199 198 197 197 197 197 198 199 200 203 204 205 206 207 205 203 202 203 205 209 213 216 216 217 218 218 218 220 220 221 223 225 227 227 224 219 214 210 208 209 210 210 209 209
178 181 186 190 191 187 185 185 186 188 190 192 192 192 193 193 192 194 196 193 187 188 187 179 172 175 176 179 188 193 197 197 196 197 198 197 196 197 197 197 197 197 197 196 195 194 194 196 198 199 200 202 202 203 203 203 201 200 200 201 204 208 213 216 216 217 218 217 218 219 218 218 220 223 225 225 221 216 212 208 206 206 208 208 207 209
179 181 184 192 195 192 188 186 186 189 191 191 192 192 193 192 192 193 194 190 185 181 176 173 174 174 171 176 186 194 198 198 197 197 197 196 196 196 196 196 196 196 195 193 193 193 194 196 197 198 198 198 198 199 199 199 198 197 197 199 203 208 212 214 215 216 214 213 215 217 215 214 217 220 221 218 215 212 208 206 204 205 207 207 209 212
176 184 183 186 191 191 189 185 185 189 191 191 192 192 192 192 192 192 193 193 188 179 175 181 187 183 177 181 189 197 199 196 196 197 196 196 197 196 195 195 195 194 192 191 192 194 195 195 195 196 196 195 196 196 195 196 196 195 197 201 205 208 212 214 213 213 212 212 215 214 211 212 216 216 214 211 207 204 203 202 202 205 208 209 212 215
177 180 179 181 182 182 183 180 182 187 191 191 193 192 192 193 193 193 195 198 197 194 192 197 199 190 183 189 195 197 196 193 194 196 196 196 197 195 194 194 192 191 190 190 192 194 194 193 193 194 194 193 193 193 193 195 196 197 201 205 207 210 213 214 212 213 213 213 214 212 210 212 214 213 211 209 206 202 200 201 203 206 210 213 215 218
181 176 176 182 182 182 185 182 182 186 189 191 193 193 192 194 195 196 198 199 200 200 196 196 198 192 188 194 196 193 194 193 194 196 196 196 195 193 191 191 190 189 189 190 191 191 192 191 191 193 193 192 191 192 193 195 197 201 204 206 209 211 212 212 213 214 213 213 213 212 211 212 212 212 213 212 209 206 204 205 208 211 214 217 219 220
179 177 178 184 185 188 189 184 179 182 187 193 194 193 193 194 195 197 199 199 199 198 196 194 192 188 191 198 197 194 194 192 193 195 195 193 191 190 189 188 189 188 189 190 191 190 191 192 192 193 191 190 190 192 193 195 198 202 204 205 209 211 211 211 212 213 213 213 214 213 213 213 212 213 214 213 212 211 209 211 213 215 217 219 222 223
179 184 185 186 186 186 183 178 176 181 187 191 192 191 192 193 194 195 197 199 199 199 199 199 196 193 197 200 198 198 195 192 191 193 193 191 189 188 188 187 188 188 188 189 191 192 192 193 193 191 190 190 191 193 194 196 199 200 202 205 208 210 210 210 211 213 215 216 216 214 214 214 214 213 213 214 215 214 213 214 216 217 219 222 226 226
181 187 186 182 181 176 173 173 178 184 187 187 187 188 190 192 192 194 196 198 199 199 200 204 206 203 202 202 200 200 197 191 188 189 190 190 189 188 188 188 188 189 190 190 192 193 192 191 190 189 189 190 191 192 194 197 198 198 201 205 207 209 211 211 211 214 217 218 217 216 215 215 213 213 213 214 216 217 217 217 218 220 222 225 228 228
184 186 180 178 175 171 171 175 178 178 178 180 183 185 186 189 190 192 194 196 198 198 200 205 208 207 206 203 200 198 195 188 185 187 189 189 189 189 189 188 188 190 192 192 191 190 190 189 188 189 190 190 190 192 194 196 196 198 201 205 208 210 212 213 214 216 217 217 216 215 215 214 211 212 214 215 217 219 219 220 220 221 224 228 231 233
190 182 173 177 177 172 172 174 171 170 174 179 184 185 185 187 189 189 191 193 194 197 200 203 204 204 203 200 197 196 193 187 185 187 187 188 190 189 188 189 189 189 190 190 188 187 187 187 188 189 189 189 190 192 194 196 198 200 203 206 209 210 212 215 217 217 217 217 216 215 215 213 212 213 217 219 220 221 221 223 224 225 228 231 233 236
192 183 175 178 176 173 172 172 170 172 176 179 182 183 185 187 186 186 189 190 190 194 197 201 202 201 200 199 196 195 192 187 187 190 190 188 188 187 186 187 188 187 187 188 186 185 186 186 187 188 189 189 191 194 196 198 200 202 205 209 211 211 214 218 219 219 219 220 219 219 218 216 216 217 219 221 223 223 224 226 228 229 232 234 235 236
189 184 182 182 179 175 174 174 174 175 177 180 180 181 184 185 181 183 186 186 188 192 195 198 202 201 199 197 194 193 192 189 188 193 193 188 184 184 184 185 186 185 184 185 185 184 184 186 188 189 190 191 193 196 198 199 201 203 207 210 213 215 217 219 220 220 222 223 222 221 219 218 219 220 220 221 224 226 227 229 231 232 233 235 237 237
183 179 179 180 182 180 175 172 173 173 177 181 179 179 181 180 179 183 186 183 185 191 192 195 198 198 194 192 191 193 194 190 186 186 187 183 180 181 182 182 184 184 182 182 183 184 185 188 189 190 192 193 195 198 199 201 203 206 209 212 215 218 220 221 222 222 223 224 223 221 219 220 220 220 221 223 226 228 229 231 232 233 234 235 236 235
172 175 176 176 179 179 173 167 167 170 176 182 180 176 176 176 179 185 186 184 188 192 190 192 195 192 190 190 191 193 192 187 183 181 181 180 177 179 181 181 181 182 181 181 183 185 188 189 191 192 194 195 197 200 202 205 207 208 210 214 216 218 221 223 224 225 225 225 223 220 219 219 220 221 223 225 227 228 230 232 233 233 233 234 234 233
164 169 170 174 179 174 169 165 164 166 173 180 176 172 173 176 180 184 182 183 188 190 188 190 192 189 187 187 188 190 188 186 185 183 181 179 176 176 179 179 178 179 181 182 185 188 189 191 192 194 196 198 201 204 207 209 210 211 213 216 217 219 223 224 225 226 227 225 222 219 217 218 220 223 225 226 227 228 230 233 233 232 232 233 233 232
150 159 163 168 172 167 163 164 165 163 168 175 173 171 175 180 181 182 181 182 184 184 184 187 189 188 187 184 181 182 183 183 184 183 180 179 178 176 177 177 177 179 182 185 188 190 192 193 195 197 199 202 206 209 211 212 213 215 217 218 219 221 223 223 224 226 227 225 222 219 218 219 220 223 226 226 227 228 230 232 232 232 232 232 232 233
139 152 162 162 164 164 162 162 164 162 162 167 169 171 175 177 178 180 182 181 180 182 184 186 185 186 187 184 180 178 178 177 178 179 180 180 179 177 177 178 179 181 185 188 191 193 195 198 200 202 205 208 212 214 215 216 217 219 220 221 221 222 222 223 224 225 226 226 224 221 220 221 222 225 227 226 227 229 231 231 232 233 233 232 232 232
134 135 146 148 152 156 154 157 165 166 161 160 163 167 170 173 177 180 181 180 181 183 184 185 185 184 183 182 179 179 181 179 178 179 180 180 178 178 179 181 183 185 189 192 194 197 198 200 201 205 208 212 215 217 219 220 221 221 223 224 224 223 223 225 226 227 226 226 224 222 221 223 226 229 229 228 228 230 230 230 233 234 234 233 233 233
145 142 143 142 143 143 144 154 166 164 157 157 160 164 168 172 176 180 179 180 184 185 184 185 186 185 184 182 179 179 182 183 183 182 182 181 180 182 185 187 190 193 196 198 200 202 204 205 206 209 212 214 217 220 222 223 224 225 225 225 224 225 226 227 228 228 226 224 223 222 222 224 228 230 230 229 230 230 231 232 234 235 234 234 234 233
152 150 147 147 150 149 148 158 164 156 151 156 159 161 165 168 172 177 178 178 182 185 184 184 186 188 188 185 181 179 180 184 186 186 185 184 185 188 191 192 195 199 202 203 204 205 207 210 211 214 215 215 218 221 222 223 225 226 224 223 225 227 228 228 228 228 226 225 225 225 225 227 229 229 229 229 231 232 234 235 236 235 234 233 233 231
156 161 153 148 150 150 149 158 164 155 150 155 160 163 167 169 170 173 174 174 177 180 182 183 186 188 188 187 186 184 183 186 189 189 189 189 190 192 194 195 197 200 202 204 205 205 206 209 210 211 212 213 216 219 219 220 223 223 221 223 226 228 229 229 230 229 228 228 228 229 229 230 230 229 229 231 233 235 237 237 236 234 233 233 232 231
164 170 162 151 146 146 151 163 170 161 154 156 159 163 169 173 173 173 174 176 176 176 178 181 184 185 186 187 189 189 188 189 191 192 193 194 194 196 197 197 198 199 200 202 204 205 206 208 210 210 212 214 216 217 218 221 224 223 223 226 229 230 231 232 231 231 231 231 232 232 232 231 231 231 231 232 234 236 238 238 236 234 233 232 233 232
154 156 162 159 150 145 152 169 176 170 162 162 164 164 169 174 175 175 177 179 179 180 180 180 182 184 184 186 190 193 193 194 195 196 198 200 200 201 201 201 201 203 203 204 207 208 210 211 213 214 216 219 220 221 223 226 228 228 230 232 233 233 234 233 233 233 234 235 235 233 232 232 232 232 232 233 235 236 237 236 236 235 234 233 233 235
142 145 153 161 160 152 148 165 177 177 168 165 165 166 170 175 175 176 180 183 183 185 187 186 187 188 188 189 193 196 197 200 201 202 204 205 206 206 205 205 206 207 208 209 211 213 214 216 217 218 221 224 225 226 228 231 232 233 235 236 236 237 236 235 235 236 236 237 236 233 232 232 231 232 234 235 235 236 235 234 235 237 237 234 233 235